Time,TemperatureF,DewpointF,PressureIn,WindDirection,WindDirectionDegrees,WindSpeedMPH,WindSpeedGustMPH,Humidity,HourlyPrecipIn,Conditions,Clouds,dailyrainin,SoftwareType,DateUTC
2013-01-10 00:00:00,45.2,30.8,30.61,ESE,106,1.0,2.0,57,0.00,,,0.00,WUHU216HW,2013-01-10 05:00:00,
2013-01-10 00:01:00,45.0,31.2,30.61,NNW,338,0.0,2.0,58,0.00,,,0.00,WUHU216HW,2013-01-10 05:01:00,
2013-01-10 00:06:00,44.6,30.8,30.61,WSW,248,1.0,2.0,58,0.00,,,0.00,WUHU216HW,2013-01-10 05:06:00,
2013-01-10 00:11:00,44.1,30.7,30.61,ESE,113,1.0,1.0,59,0.00,,,0.00,WUHU216HW,2013-01-10 05:11:00,
2013-01-10 00:16:00,43.7,30.8,30.61,NNW,338,0.0,2.0,60,0.00,,,0.00,WUHU216HW,2013-01-10 05:16:00,
2013-01-10 00:21:00,43.9,31.0,30.61,WNW,293,1.0,3.0,60,0.00,,,0.00,WUHU216HW,2013-01-10 05:21:00,
2013-01-10 00:26:00,44.3,31.3,30.62,NW,315,0.0,3.0,60,0.00,,,0.00,WUHU216HW,2013-01-10 05:26:00,
2013-01-10 00:31:00,43.9,31.0,30.62,WNW,293,0.0,1.0,60,0.00,,,0.00,WUHU216HW,2013-01-10 05:31:00,
2013-01-10 00:36:00,43.4,30.4,30.62,NNE,23,0.0,1.0,60,0.00,,,0.00,WUHU216HW,2013-01-10 05:36:00,
2013-01-10 00:41:00,42.8,30.2,30.62,SE,129,1.0,1.0,61,0.00,,,0.00,WUHU216HW,2013-01-10 05:41:00,
2013-01-10 00:46:00,42.7,30.5,30.63,ENE,68,0.0,1.0,62,0.00,,,0.00,WUHU216HW,2013-01-10 05:46:00,
2013-01-10 00:51:00,42.1,30.0,30.63,WNW,293,0.0,1.0,62,0.00,,,0.00,WUHU216HW,2013-01-10 05:51:00,
2013-01-10 00:56:00,40.9,28.8,30.62,West,270,0.0,1.0,62,0.00,,,0.00,WUHU216HW,2013-01-10 05:56:00,
2013-01-10 01:01:00,40.3,29.1,30.62,West,270,1.0,1.0,64,0.00,,,0.00,WUHU216HW,2013-01-10 06:01:00,
2013-01-10 01:06:00,40.3,29.8,30.62,West,270,3.0,3.0,66,0.00,,,0.00,WUHU216HW,2013-01-10 06:06:00,
2013-01-10 01:11:00,41.2,30.7,30.62,West,270,1.0,3.0,66,0.00,,,0.00,WUHU216HW,2013-01-10 06:11:00,
2013-01-10 01:16:00,41.9,31.0,30.62,NW,309,2.0,3.0,65,0.00,,,0.00,WUHU216HW,2013-01-10 06:16:00,
2013-01-10 01:21:00,42.7,31.3,30.63,NW,315,1.0,3.0,64,0.00,,,0.00,WUHU216HW,2013-01-10 06:21:00,
2013-01-10 01:26:00,42.7,30.9,30.63,WNW,293,3.0,3.0,63,0.00,,,0.00,WUHU216HW,2013-01-10 06:26:00,
2013-01-10 01:31:00,42.7,30.9,30.63,WNW,299,2.0,4.0,63,0.00,,,0.00,WUHU216HW,2013-01-10 06:31:00,
2013-01-10 01:36:00,42.7,30.9,30.63,WNW,293,2.0,4.0,63,0.00,,,0.00,WUHU216HW,2013-01-10 06:36:00,
2013-01-10 01:41:00,42.8,30.7,30.63,West,270,2.0,3.0,62,0.00,,,0.00,WUHU216HW,2013-01-10 06:41:00,
2013-01-10 01:46:00,42.8,30.2,30.63,NW,315,3.0,5.0,61,0.00,,,0.00,WUHU216HW,2013-01-10 06:46:00,
2013-01-10 01:51:00,43.6,30.6,30.64,WNW,293,3.0,6.0,60,0.00,,,0.00,WUHU216HW,2013-01-10 06:51:00,
2013-01-10 01:56:00,43.9,30.1,30.63,West,270,5.0,6.0,58,0.00,,,0.00,WUHU216HW,2013-01-10 06:56:00,
2013-01-10 02:01:00,44.3,30.4,30.64,North,8,3.0,5.0,58,0.00,,,0.00,WUHU216HW,2013-01-10 07:01:00,
2013-01-10 02:06:00,44.5,29.3,30.64,WSW,254,4.0,9.0,55,0.00,,,0.00,WUHU216HW,2013-01-10 07:06:00,
2013-01-10 02:11:00,44.5,30.2,30.64,West,270,3.0,9.0,57,0.00,,,0.00,WUHU216HW,2013-01-10 07:11:00,
2013-01-10 02:16:00,43.9,29.6,30.64,WNW,290,4.0,6.0,57,0.00,,,0.00,WUHU216HW,2013-01-10 07:16:00,
2013-01-10 02:21:00,43.7,29.9,30.64,West,270,5.0,6.0,58,0.00,,,0.00,WUHU216HW,2013-01-10 07:21:00,
2013-01-10 02:26:00,43.9,29.6,30.63,West,266,4.0,5.0,57,0.00,,,0.00,WUHU216HW,2013-01-10 07:26:00,
2013-01-10 02:31:00,44.3,29.5,30.64,West,277,5.0,6.0,56,0.00,,,0.00,WUHU216HW,2013-01-10 07:31:00,
2013-01-10 02:36:00,44.6,29.4,30.64,WSW,248,3.0,7.0,55,0.00,,,0.00,WUHU216HW,2013-01-10 07:36:00,
2013-01-10 02:41:00,44.6,29.4,30.64,SW,225,5.0,7.0,55,0.00,,,0.00,WUHU216HW,2013-01-10 07:41:00,
2013-01-10 02:46:00,44.6,29.0,30.64,WSW,248,3.0,6.0,54,0.00,,,0.00,WUHU216HW,2013-01-10 07:46:00,
2013-01-10 02:51:00,44.6,29.0,30.64,West,270,3.0,6.0,54,0.00,,,0.00,WUHU216HW,2013-01-10 07:51:00,
2013-01-10 02:56:00,44.6,28.5,30.65,NW,309,2.0,5.0,53,0.00,,,0.00,WUHU216HW,2013-01-10 07:56:00,
2013-01-10 03:01:00,44.8,29.2,30.65,WSW,255,1.0,5.0,54,0.00,,,0.00,WUHU216HW,2013-01-10 08:01:00,
2013-01-10 03:06:00,45.0,28.9,30.66,WNW,295,2.0,4.0,53,0.00,,,0.00,WUHU216HW,2013-01-10 08:06:00,
2013-01-10 03:11:00,45.0,28.9,30.66,NW,315,2.0,4.0,53,0.00,,,0.00,WUHU216HW,2013-01-10 08:11:00,
2013-01-10 03:16:00,44.8,28.3,30.65,West,270,1.0,3.0,52,0.00,,,0.00,WUHU216HW,2013-01-10 08:16:00,
2013-01-10 03:21:00,44.6,28.5,30.65,West,270,2.0,3.0,53,0.00,,,0.00,WUHU216HW,2013-01-10 08:21:00,
2013-01-10 03:26:00,44.3,28.2,30.65,West,270,3.0,3.0,53,0.00,,,0.00,WUHU216HW,2013-01-10 08:26:00,
2013-01-10 06:00:00,40.5,25.5,30.67,WSW,248,0.0,0.0,55,0.00,,,0.00,WUHU216HW,2013-01-10 11:00:00,
2013-01-10 06:05:00,40.3,25.7,30.68,ENE,68,0.0,0.0,56,0.00,,,0.00,WUHU216HW,2013-01-10 11:05:00,
2013-01-10 06:10:00,40.3,25.7,30.68,SE,135,0.0,0.0,56,0.00,,,0.00,WUHU216HW,2013-01-10 11:10:00,
2013-01-10 06:15:00,40.0,25.8,30.69,WSW,254,1.0,2.0,57,0.00,,,0.00,WUHU216HW,2013-01-10 11:15:00,
2013-01-10 06:20:00,39.6,25.9,30.69,NW,315,0.0,2.0,58,0.00,,,0.00,WUHU216HW,2013-01-10 11:20:00,
2013-01-10 06:25:00,39.2,25.6,30.70,SE,135,0.0,1.0,58,0.00,,,0.00,WUHU216HW,2013-01-10 11:25:00,
2013-01-10 06:30:00,39.2,26.0,30.70,SSE,158,0.0,1.0,59,0.00,,,0.00,WUHU216HW,2013-01-10 11:30:00,
2013-01-10 06:35:00,39.2,26.0,30.70,WNW,293,0.0,0.0,59,0.00,,,0.00,WUHU216HW,2013-01-10 11:35:00,
2013-01-10 06:40:00,39.2,26.0,30.70,WNW,293,0.0,0.0,59,0.00,,,0.00,WUHU216HW,2013-01-10 11:40:00,
2013-01-10 06:45:00,38.9,25.8,30.71,SSW,203,0.0,0.0,59,0.00,,,0.00,WUHU216HW,2013-01-10 11:45:00,
2013-01-10 06:50:00,38.5,25.4,30.71,South,180,0.0,0.0,59,0.00,,,0.00,WUHU216HW,2013-01-10 11:50:00,
2013-01-10 06:55:00,38.3,25.7,30.72,NW,315,0.0,0.0,60,0.00,,,0.00,WUHU216HW,2013-01-10 11:55:00,
2013-01-10 07:00:00,38.2,25.5,30.72,NW,315,0.0,0.0,60,0.00,,,0.00,WUHU216HW,2013-01-10 12:00:00,
2013-01-10 07:05:00,37.8,25.9,30.73,North,0,0.0,0.0,62,0.00,,,0.00,WUHU216HW,2013-01-10 12:05:00,
2013-01-10 07:10:00,37.4,25.2,30.73,North,0,0.0,0.0,61,0.00,,,0.00,WUHU216HW,2013-01-10 12:10:00,
2013-01-10 07:15:00,37.3,25.5,30.73,NNE,23,0.0,0.0,62,0.00,,,0.00,WUHU216HW,2013-01-10 12:15:00,
2013-01-10 07:20:00,37.1,25.3,30.73,NNE,23,0.0,0.0,62,0.00,,,0.00,WUHU216HW,2013-01-10 12:20:00,
2013-01-10 07:25:00,36.7,24.9,30.74,West,270,0.0,0.0,62,0.00,,,0.00,WUHU216HW,2013-01-10 12:25:00,
2013-01-10 07:30:00,36.4,24.6,30.74,West,270,0.0,0.0,62,0.00,,,0.00,WUHU216HW,2013-01-10 12:30:00,
2013-01-10 07:35:00,36.4,24.9,30.75,West,270,0.0,0.0,63,0.00,,,0.00,WUHU216HW,2013-01-10 12:35:00,
2013-01-10 07:40:00,36.0,24.7,30.75,West,270,0.0,0.0,63,0.00,,,0.00,WUHU216HW,2013-01-10 12:40:00,
2013-01-10 07:45:00,35.6,24.7,30.74,WSW,248,0.0,0.0,64,0.00,,,0.00,WUHU216HW,2013-01-10 12:45:00,
2013-01-10 07:50:00,35.1,24.1,30.75,WSW,248,0.0,0.0,64,0.00,,,0.00,WUHU216HW,2013-01-10 12:50:00,
2013-01-10 07:55:00,34.9,24.3,30.75,SE,135,0.0,0.0,65,0.00,,,0.00,WUHU216HW,2013-01-10 12:55:00,
2013-01-10 08:00:00,34.7,24.1,30.75,WSW,248,0.0,0.0,65,0.00,,,0.00,WUHU216HW,2013-01-10 13:00:00,
2013-01-10 08:05:00,34.7,24.5,30.75,North,0,0.0,0.0,66,0.00,,,0.00,WUHU216HW,2013-01-10 13:05:00,
2013-01-10 08:10:00,34.6,24.7,30.76,North,0,0.0,0.0,67,0.00,,,0.00,WUHU216HW,2013-01-10 13:10:00,
2013-01-10 08:15:00,34.4,24.5,30.76,SE,135,0.0,0.0,67,0.00,,,0.00,WUHU216HW,2013-01-10 13:15:00,
2013-01-10 08:20:00,34.6,24.7,30.76,SE,135,0.0,1.0,67,0.00,,,0.00,WUHU216HW,2013-01-10 13:20:00,
2013-01-10 08:25:00,34.6,24.7,30.76,SE,135,0.0,1.0,67,0.00,,,0.00,WUHU216HW,2013-01-10 13:25:00,
2013-01-10 08:30:00,34.9,25.4,30.76,West,270,0.0,0.0,68,0.00,,,0.00,WUHU216HW,2013-01-10 13:30:00,
2013-01-10 08:35:00,34.9,25.4,30.77,West,270,0.0,0.0,68,0.00,,,0.00,WUHU216HW,2013-01-10 13:35:00,
2013-01-10 08:40:00,35.1,25.9,30.77,West,270,0.0,0.0,69,0.00,,,0.00,WUHU216HW,2013-01-10 13:40:00,
2013-01-10 08:45:00,35.6,26.5,30.77,WNW,293,0.0,1.0,69,0.00,,,0.00,WUHU216HW,2013-01-10 13:45:00,
2013-01-10 08:50:00,36.2,27.0,30.77,SSW,203,0.0,1.0,69,0.00,,,0.00,WUHU216HW,2013-01-10 13:50:00,
2013-01-10 08:55:00,37.1,27.6,30.77,West,270,0.0,1.0,68,0.00,,,0.00,WUHU216HW,2013-01-10 13:55:00,
2013-01-10 09:00:00,37.8,27.8,30.78,West,270,0.0,1.0,67,0.00,,,0.00,WUHU216HW,2013-01-10 14:00:00,
2013-01-10 09:05:00,38.5,28.4,30.78,West,270,0.0,1.0,67,0.00,,,0.00,WUHU216HW,2013-01-10 14:05:00,
2013-01-10 09:10:00,39.1,28.5,30.78,SSW,203,1.0,1.0,66,0.00,,,0.00,WUHU216HW,2013-01-10 14:10:00,
2013-01-10 09:15:00,39.6,28.7,30.78,NNE,23,0.0,1.0,65,0.00,,,0.00,WUHU216HW,2013-01-10 14:15:00,
2013-01-10 09:20:00,40.1,29.3,30.78,NNW,338,0.0,1.0,65,0.00,,,0.00,WUHU216HW,2013-01-10 14:20:00,
2013-01-10 09:25:00,40.7,29.8,30.79,NE,47,1.0,1.0,65,0.00,,,0.00,WUHU216HW,2013-01-10 14:25:00,
2013-01-10 09:30:00,41.0,29.4,30.79,WSW,248,0.0,1.0,63,0.00,,,0.00,WUHU216HW,2013-01-10 14:30:00,
2013-01-10 09:35:00,41.6,29.9,30.79,WNW,293,0.0,1.0,63,0.00,,,0.00,WUHU216HW,2013-01-10 14:35:00,
2013-01-10 09:40:00,41.9,29.4,30.79,West,270,0.0,1.0,61,0.00,,,0.00,WUHU216HW,2013-01-10 14:40:00,
2013-01-10 09:45:00,42.3,29.4,30.79,NW,315,1.0,1.0,60,0.00,,,0.00,WUHU216HW,2013-01-10 14:45:00,
2013-01-10 09:49:00,42.8,29.9,30.79,North,0,0.0,2.0,60,0.00,,,0.00,WUHU216HW,2013-01-10 14:49:00,
2013-01-10 09:55:00,43.0,29.6,30.80,WSW,248,0.0,2.0,59,0.00,,,0.00,WUHU216HW,2013-01-10 14:55:00,
2013-01-10 10:00:00,43.4,29.5,30.79,SW,225,1.0,1.0,58,0.00,,,0.00,WUHU216HW,2013-01-10 15:00:00,
2013-01-10 10:04:00,43.6,29.7,30.79,West,270,0.0,1.0,58,0.00,,,0.00,WUHU216HW,2013-01-10 15:04:00,
2013-01-10 10:09:00,43.7,29.4,30.80,West,270,0.0,2.0,57,0.00,,,0.00,WUHU216HW,2013-01-10 15:09:00,
2013-01-10 10:14:00,44.1,29.8,30.80,WNW,293,1.0,2.0,57,0.00,,,0.00,WUHU216HW,2013-01-10 15:14:00,
2013-01-10 10:19:00,44.3,29.5,30.80,NW,325,1.0,1.0,56,0.00,,,0.00,WUHU216HW,2013-01-10 15:19:00,
2013-01-10 10:24:00,44.6,29.4,30.80,WSW,248,0.0,1.0,55,0.00,,,0.00,WUHU216HW,2013-01-10 15:24:00,
2013-01-10 10:29:00,44.8,30.1,30.80,NNW,338,0.0,1.0,56,0.00,,,0.00,WUHU216HW,2013-01-10 15:29:00,
2013-01-10 10:35:00,45.0,30.7,30.80,NE,45,0.0,2.0,57,0.00,,,0.00,WUHU216HW,2013-01-10 15:35:00,
2013-01-10 10:40:00,45.5,30.7,30.79,NNW,338,0.0,2.0,56,0.00,,,0.00,WUHU216HW,2013-01-10 15:40:00,
2013-01-10 10:45:00,45.7,30.4,30.79,East,90,0.0,1.0,55,0.00,,,0.00,WUHU216HW,2013-01-10 15:45:00,
2013-01-10 10:49:00,45.9,30.6,30.79,NW,315,0.0,2.0,55,0.00,,,0.00,WUHU216HW,2013-01-10 15:49:00,
2013-01-10 10:54:00,46.1,30.7,30.79,ENE,68,1.0,2.0,55,0.00,,,0.00,WUHU216HW,2013-01-10 15:54:00,
2013-01-10 10:59:00,46.4,31.1,30.79,West,259,2.0,3.0,55,0.00,,,0.00,WUHU216HW,2013-01-10 15:59:00,
2013-01-10 11:04:00,46.8,31.0,30.79,WNW,293,0.0,3.0,54,0.00,,,0.00,WUHU216HW,2013-01-10 16:04:00,
2013-01-10 11:09:00,47.0,31.2,30.79,North,0,1.0,2.0,54,0.00,,,0.00,WUHU216HW,2013-01-10 16:09:00,
2013-01-10 11:14:00,47.0,31.2,30.78,NNW,338,0.0,1.0,54,0.00,,,0.00,WUHU216HW,2013-01-10 16:14:00,
2013-01-10 11:19:00,47.2,31.3,30.78,NNW,342,1.0,2.0,54,0.00,,,0.00,WUHU216HW,2013-01-10 16:19:00,
2013-01-10 11:24:00,47.5,31.1,30.77,SSW,203,1.0,2.0,53,0.00,,,0.00,WUHU216HW,2013-01-10 16:24:00,
2013-01-10 11:29:00,47.9,31.5,30.77,WSW,248,1.0,3.0,53,0.00,,,0.00,WUHU216HW,2013-01-10 16:29:00,
2013-01-10 11:35:00,48.2,31.3,30.77,WNW,293,0.0,3.0,52,0.00,,,0.00,WUHU216HW,2013-01-10 16:35:00,
2013-01-10 11:40:00,48.4,31.5,30.76,North,0,1.0,2.0,52,0.00,,,0.00,WUHU216HW,2013-01-10 16:40:00,
2013-01-10 11:45:00,48.6,31.2,30.76,WNW,285,1.0,3.0,51,0.00,,,0.00,WUHU216HW,2013-01-10 16:45:00,
2013-01-10 11:49:00,49.0,31.1,30.76,NW,321,1.0,3.0,50,0.00,,,0.00,WUHU216HW,2013-01-10 16:49:00,
2013-01-10 11:54:00,49.3,31.5,30.75,SSW,193,1.0,2.0,50,0.00,,,0.00,WUHU216HW,2013-01-10 16:54:00,
2013-01-10 11:59:00,49.9,32.0,30.75,SSE,158,0.0,1.0,50,0.00,,,0.00,WUHU216HW,2013-01-10 16:59:00,
2013-01-10 12:04:00,50.0,32.2,30.75,WNW,298,1.0,1.0,50,0.00,,,0.00,WUHU216HW,2013-01-10 17:04:00,
2013-01-10 12:09:00,50.0,31.2,30.75,NNW,338,0.0,2.0,48,0.00,,,0.00,WUHU216HW,2013-01-10 17:09:00,
2013-01-10 12:14:00,49.9,31.0,30.75,WNW,293,1.0,2.0,48,0.00,,,0.00,WUHU216HW,2013-01-10 17:14:00,
2013-01-10 12:19:00,49.7,31.3,30.74,NE,45,0.0,1.0,49,0.00,,,0.00,WUHU216HW,2013-01-10 17:19:00,
2013-01-10 12:24:00,49.7,30.8,30.74,WNW,293,1.0,2.0,48,0.00,,,0.00,WUHU216HW,2013-01-10 17:24:00,
2013-01-10 12:29:00,49.7,31.3,30.74,West,270,1.0,2.0,49,0.00,,,0.00,WUHU216HW,2013-01-10 17:29:00,
2013-01-10 12:34:00,50.0,31.2,30.74,WNW,293,0.0,1.0,48,0.00,,,0.00,WUHU216HW,2013-01-10 17:34:00,
2013-01-10 12:39:00,50.2,31.2,30.73,West,270,2.0,2.0,48,0.00,,,0.00,WUHU216HW,2013-01-10 17:39:00,
2013-01-10 12:44:00,50.8,32.3,30.73,NNW,338,0.0,2.0,49,0.00,,,0.00,WUHU216HW,2013-01-10 17:44:00,
2013-01-10 12:49:00,50.8,31.8,30.73,WNW,293,0.0,2.0,48,0.00,,,0.00,WUHU216HW,2013-01-10 17:49:00,
2013-01-10 12:54:00,50.8,31.2,30.73,NNE,28,1.0,2.0,47,0.00,,,0.00,WUHU216HW,2013-01-10 17:54:00,
2013-01-10 12:59:00,50.9,30.8,30.74,West,270,1.0,2.0,46,0.00,,,0.00,WUHU216HW,2013-01-10 17:59:00,
2013-01-10 13:04:00,51.7,31.4,30.73,ENE,68,1.0,2.0,46,0.00,,,0.00,WUHU216HW,2013-01-10 18:04:00,
2013-01-10 13:09:00,52.0,32.3,30.73,ENE,78,1.0,2.0,47,0.00,,,0.00,WUHU216HW,2013-01-10 18:09:00,
2013-01-10 13:14:00,52.2,32.0,30.73,NE,45,1.0,2.0,46,0.00,,,0.00,WUHU216HW,2013-01-10 18:14:00,
2013-01-10 13:19:00,52.2,30.8,30.72,NW,324,1.0,2.0,44,0.00,,,0.00,WUHU216HW,2013-01-10 18:19:00,
2013-01-10 13:24:00,52.4,31.5,30.72,WSW,245,1.0,2.0,45,0.00,,,0.00,WUHU216HW,2013-01-10 18:24:00,
2013-01-10 13:29:00,52.9,32.1,30.72,WSW,248,0.0,2.0,45,0.00,,,0.00,WUHU216HW,2013-01-10 18:29:00,
2013-01-10 13:34:00,52.9,32.6,30.72,WSW,256,1.0,2.0,46,0.00,,,0.00,WUHU216HW,2013-01-10 18:34:00,
2013-01-10 13:39:00,53.1,32.8,30.72,NNE,23,2.0,2.0,46,0.00,,,0.00,WUHU216HW,2013-01-10 18:39:00,
2013-01-10 13:44:00,52.9,32.1,30.72,West,270,0.0,3.0,45,0.00,,,0.00,WUHU216HW,2013-01-10 18:44:00,
2013-01-10 13:49:00,52.9,31.5,30.72,West,270,2.0,3.0,44,0.00,,,0.00,WUHU216HW,2013-01-10 18:49:00,
2013-01-10 13:54:00,53.1,32.2,30.72,NW,315,1.0,2.0,45,0.00,,,0.00,WUHU216HW,2013-01-10 18:54:00,
2013-01-10 13:59:00,53.3,32.3,30.71,NNW,338,0.0,2.0,45,0.00,,,0.00,WUHU216HW,2013-01-10 18:59:00,
2013-01-10 14:04:00,53.5,32.5,30.71,ENE,70,1.0,1.0,45,0.00,,,0.00,WUHU216HW,2013-01-10 19:04:00,
2013-01-10 14:10:00,53.6,32.1,30.71,NE,37,1.0,2.0,44,0.00,,,0.00,WUHU216HW,2013-01-10 19:10:00,
2013-01-10 14:14:00,53.8,31.7,30.70,NW,315,1.0,2.0,43,0.00,,,0.00,WUHU216HW,2013-01-10 19:14:00,
2013-01-10 14:19:00,54.0,31.9,30.71,WNW,293,1.0,2.0,43,0.00,,,0.00,WUHU216HW,2013-01-10 19:19:00,
2013-01-10 14:25:00,54.0,31.9,30.70,ESE,113,1.0,2.0,43,0.00,,,0.00,WUHU216HW,2013-01-10 19:25:00,
2013-01-10 14:30:00,54.0,31.9,30.71,ESE,113,0.0,2.0,43,0.00,,,0.00,WUHU216HW,2013-01-10 19:30:00,
2013-01-10 14:35:00,54.2,32.0,30.70,ESE,113,1.0,2.0,43,0.00,,,0.00,WUHU216HW,2013-01-10 19:35:00,
2013-01-10 14:40:00,54.5,32.4,30.70,NNW,338,0.0,2.0,43,0.00,,,0.00,WUHU216HW,2013-01-10 19:40:00,
2013-01-10 14:45:00,54.4,31.7,30.70,NW,315,0.0,2.0,42,0.00,,,0.00,WUHU216HW,2013-01-10 19:45:00,
2013-01-10 14:50:00,54.0,30.8,30.69,NE,38,2.0,3.0,41,0.00,,,0.00,WUHU216HW,2013-01-10 19:50:00,
2013-01-10 14:55:00,54.0,30.8,30.70,ENE,68,1.0,3.0,41,0.00,,,0.00,WUHU216HW,2013-01-10 19:55:00,
2013-01-10 15:00:00,54.5,31.2,30.69,ENE,68,2.0,3.0,41,0.00,,,0.00,WUHU216HW,2013-01-10 20:00:00,
2013-01-10 15:05:00,54.7,30.9,30.70,ENE,68,3.0,4.0,40,0.00,,,0.00,WUHU216HW,2013-01-10 20:05:00,
2013-01-10 15:10:00,54.4,31.1,30.70,ENE,62,2.0,4.0,41,0.00,,,0.00,WUHU216HW,2013-01-10 20:10:00,
2013-01-10 15:15:00,54.4,31.1,30.70,NE,44,1.0,3.0,41,0.00,,,0.00,WUHU216HW,2013-01-10 20:15:00,
2013-01-10 15:20:00,54.0,31.3,30.70,ENE,57,1.0,3.0,42,0.00,,,0.00,WUHU216HW,2013-01-10 20:20:00,
2013-01-10 15:25:00,54.0,31.9,30.70,NE,45,2.0,3.0,43,0.00,,,0.00,WUHU216HW,2013-01-10 20:25:00,
2013-01-10 15:30:00,53.6,31.6,30.70,East,90,2.0,2.0,43,0.00,,,0.00,WUHU216HW,2013-01-10 20:30:00,
2013-01-10 15:35:00,52.9,31.5,30.70,ENE,68,1.0,3.0,44,0.00,,,0.00,WUHU216HW,2013-01-10 20:35:00,
2013-01-10 15:40:00,52.4,30.4,30.69,ENE,68,0.0,3.0,43,0.00,,,0.00,WUHU216HW,2013-01-10 20:40:00,
2013-01-10 15:45:00,52.0,31.2,30.70,NE,45,1.0,2.0,45,0.00,,,0.00,WUHU216HW,2013-01-10 20:45:00,
2013-01-10 15:50:00,51.7,30.9,30.69,North,10,1.0,2.0,45,0.00,,,0.00,WUHU216HW,2013-01-10 20:50:00,
2013-01-10 15:55:00,51.3,30.6,30.69,NE,54,1.0,3.0,45,0.00,,,0.00,WUHU216HW,2013-01-10 20:55:00,
2013-01-10 16:00:00,51.1,31.0,30.69,NW,315,0.0,3.0,46,0.00,,,0.00,WUHU216HW,2013-01-10 21:00:00,
2013-01-10 16:05:00,50.9,30.8,30.69,NE,40,1.0,2.0,46,0.00,,,0.00,WUHU216HW,2013-01-10 21:05:00,
2013-01-10 16:10:00,50.9,30.8,30.69,ENE,68,0.0,2.0,46,0.00,,,0.00,WUHU216HW,2013-01-10 21:10:00,
2013-01-10 16:15:00,50.8,30.6,30.69,ENE,68,1.0,2.0,46,0.00,,,0.00,WUHU216HW,2013-01-10 21:15:00,
2013-01-10 16:20:00,50.8,31.2,30.69,NNW,338,0.0,2.0,47,0.00,,,0.00,WUHU216HW,2013-01-10 21:20:00,
2013-01-10 16:25:00,50.4,30.9,30.69,NNE,23,1.0,2.0,47,0.00,,,0.00,WUHU216HW,2013-01-10 21:25:00,
2013-01-10 16:30:00,50.0,31.2,30.70,NE,55,1.0,2.0,48,0.00,,,0.00,WUHU216HW,2013-01-10 21:30:00,
2013-01-10 16:35:00,49.9,31.0,30.70,NE,38,1.0,2.0,48,0.00,,,0.00,WUHU216HW,2013-01-10 21:35:00,
2013-01-10 16:40:00,49.7,30.8,30.70,NNE,23,0.0,2.0,48,0.00,,,0.00,WUHU216HW,2013-01-10 21:40:00,
2013-01-10 16:45:00,49.3,31.0,30.70,NNE,23,0.0,1.0,49,0.00,,,0.00,WUHU216HW,2013-01-10 21:45:00,
2013-01-10 16:50:00,49.1,30.8,30.70,East,90,0.0,1.0,49,0.00,,,0.00,WUHU216HW,2013-01-10 21:50:00,
2013-01-10 16:55:00,49.0,31.1,30.70,East,90,0.0,0.0,50,0.00,,,0.00,WUHU216HW,2013-01-10 21:55:00,
2013-01-10 17:00:00,48.8,31.0,30.70,East,90,0.0,0.0,50,0.00,,,0.00,WUHU216HW,2013-01-10 22:00:00,
2013-01-10 17:05:00,48.6,30.8,30.69,East,90,0.0,0.0,50,0.00,,,0.00,WUHU216HW,2013-01-10 22:05:00,
2013-01-10 17:10:00,48.4,30.6,30.69,East,90,0.0,0.0,50,0.00,,,0.00,WUHU216HW,2013-01-10 22:10:00,
2013-01-10 17:15:00,48.2,30.9,30.69,East,90,0.0,0.0,51,0.00,,,0.00,WUHU216HW,2013-01-10 22:15:00,
2013-01-10 17:20:00,48.1,30.7,30.69,East,90,0.0,0.0,51,0.00,,,0.00,WUHU216HW,2013-01-10 22:20:00,
2013-01-10 17:25:00,47.9,31.1,30.69,East,90,0.0,0.0,52,0.00,,,0.00,WUHU216HW,2013-01-10 22:25:00,
2013-01-10 17:30:00,47.7,30.9,30.69,East,90,0.0,0.0,52,0.00,,,0.00,WUHU216HW,2013-01-10 22:30:00,
2013-01-10 17:35:00,47.3,30.5,30.69,East,90,0.0,0.0,52,0.00,,,0.00,WUHU216HW,2013-01-10 22:35:00,
2013-01-10 17:40:00,47.2,30.8,30.69,East,90,0.0,0.0,53,0.00,,,0.00,WUHU216HW,2013-01-10 22:40:00,
2013-01-10 17:45:00,46.6,30.8,30.70,NW,315,0.0,0.0,54,0.00,,,0.00,WUHU216HW,2013-01-10 22:45:00,
2013-01-10 17:50:00,46.3,30.9,30.70,NW,315,0.0,0.0,55,0.00,,,0.00,WUHU216HW,2013-01-10 22:50:00,
2013-01-10 17:55:00,45.7,30.4,30.70,SSE,158,0.0,0.0,55,0.00,,,0.00,WUHU216HW,2013-01-10 22:55:00,
2013-01-10 18:00:00,45.5,30.7,30.70,SSE,158,0.0,0.0,56,0.00,,,0.00,WUHU216HW,2013-01-10 23:00:00,
2013-01-10 18:05:00,45.4,30.5,30.70,SSE,158,0.0,0.0,56,0.00,,,0.00,WUHU216HW,2013-01-10 23:05:00,
2013-01-10 18:10:00,45.2,30.8,30.70,NE,45,0.0,1.0,57,0.00,,,0.00,WUHU216HW,2013-01-10 23:10:00,
2013-01-10 18:15:00,45.0,30.7,30.70,NE,45,0.0,1.0,57,0.00,,,0.00,WUHU216HW,2013-01-10 23:15:00,
2013-01-10 18:20:00,44.8,30.5,30.71,NW,315,0.0,0.0,57,0.00,,,0.00,WUHU216HW,2013-01-10 23:20:00,
2013-01-10 18:25:00,44.5,30.2,30.71,NW,315,0.0,0.0,57,0.00,,,0.00,WUHU216HW,2013-01-10 23:25:00,
2013-01-10 18:30:00,44.1,30.2,30.70,NW,315,0.0,0.0,58,0.00,,,0.00,WUHU216HW,2013-01-10 23:30:00,
2013-01-10 18:35:00,43.9,30.5,30.71,NW,315,0.0,0.0,59,0.00,,,0.00,WUHU216HW,2013-01-10 23:35:00,
2013-01-10 18:40:00,43.6,30.6,30.71,NE,45,1.0,1.0,60,0.00,,,0.00,WUHU216HW,2013-01-10 23:40:00,
2013-01-10 18:45:00,43.6,30.6,30.71,NE,45,0.0,1.0,60,0.00,,,0.00,WUHU216HW,2013-01-10 23:45:00,
2013-01-10 18:50:00,43.4,30.8,30.70,NE,45,0.0,1.0,61,0.00,,,0.00,WUHU216HW,2013-01-10 23:50:00,
2013-01-10 18:56:00,43.2,30.6,30.71,NNE,23,0.0,0.0,61,0.00,,,0.00,WUHU216HW,2013-01-10 23:56:00,
2013-01-10 19:01:00,43.0,30.9,30.71,NNE,23,0.0,0.0,62,0.00,,,0.00,WUHU216HW,2013-01-11 00:01:00,
2013-01-10 19:06:00,42.8,30.7,30.71,NNE,23,0.0,0.0,62,0.00,,,0.00,WUHU216HW,2013-01-11 00:06:00,
2013-01-10 19:11:00,42.8,30.7,30.71,NNE,23,0.0,0.0,62,0.00,,,0.00,WUHU216HW,2013-01-11 00:11:00,
2013-01-10 19:16:00,42.8,31.1,30.71,NNE,23,0.0,0.0,63,0.00,,,0.00,WUHU216HW,2013-01-11 00:16:00,
2013-01-10 19:21:00,42.7,30.9,30.71,NNE,23,0.0,0.0,63,0.00,,,0.00,WUHU216HW,2013-01-11 00:21:00,
2013-01-10 19:26:00,42.5,30.7,30.71,WNW,293,0.0,0.0,63,0.00,,,0.00,WUHU216HW,2013-01-11 00:26:00,
2013-01-10 19:31:00,42.3,30.6,30.70,WNW,293,0.0,0.0,63,0.00,,,0.00,WUHU216HW,2013-01-11 00:31:00,
2013-01-10 19:36:00,42.1,30.4,30.70,WNW,293,0.0,0.0,63,0.00,,,0.00,WUHU216HW,2013-01-11 00:36:00,
2013-01-10 19:41:00,42.1,30.8,30.69,WNW,293,0.0,0.0,64,0.00,,,0.00,WUHU216HW,2013-01-11 00:41:00,
2013-01-10 19:46:00,42.1,30.8,30.69,WNW,293,0.0,0.0,64,0.00,,,0.00,WUHU216HW,2013-01-11 00:46:00,
2013-01-10 19:51:00,42.1,30.8,30.69,WNW,293,0.0,0.0,64,0.00,,,0.00,WUHU216HW,2013-01-11 00:51:00,
2013-01-10 19:56:00,41.8,30.4,30.69,WNW,293,0.0,0.0,64,0.00,,,0.00,WUHU216HW,2013-01-11 00:56:00,
2013-01-10 20:01:00,41.8,30.4,30.69,WNW,293,0.0,0.0,64,0.00,,,0.00,WUHU216HW,2013-01-11 01:01:00,
2013-01-10 20:06:00,41.6,30.2,30.69,WNW,293,0.0,0.0,64,0.00,,,0.00,WUHU216HW,2013-01-11 01:06:00,
2013-01-10 20:11:00,41.4,30.2,30.69,WNW,293,0.0,0.0,64,0.00,,,0.00,WUHU216HW,2013-01-11 01:11:00,
2013-01-10 20:16:00,41.0,30.2,30.70,WNW,293,0.0,0.0,65,0.00,,,0.00,WUHU216HW,2013-01-11 01:16:00,
2013-01-10 20:21:00,40.9,30.0,30.69,WNW,293,0.0,0.0,65,0.00,,,0.00,WUHU216HW,2013-01-11 01:21:00,
2013-01-10 20:26:00,40.7,29.8,30.69,WNW,293,0.0,0.0,65,0.00,,,0.00,WUHU216HW,2013-01-11 01:26:00,
2013-01-10 20:31:00,40.3,29.8,30.69,WNW,293,0.0,0.0,66,0.00,,,0.00,WUHU216HW,2013-01-11 01:31:00,
2013-01-10 20:36:00,40.1,29.6,30.69,WNW,293,0.0,0.0,66,0.00,,,0.00,WUHU216HW,2013-01-11 01:36:00,
2013-01-10 20:41:00,40.0,29.4,30.70,WNW,293,0.0,0.0,66,0.00,,,0.00,WUHU216HW,2013-01-11 01:41:00,
2013-01-10 20:46:00,39.6,29.1,30.70,WNW,293,0.0,0.0,66,0.00,,,0.00,WUHU216HW,2013-01-11 01:46:00,
2013-01-10 20:51:00,39.4,28.9,30.69,WNW,293,0.0,0.0,66,0.00,,,0.00,WUHU216HW,2013-01-11 01:51:00,
2013-01-10 20:56:00,39.2,29.1,30.70,WNW,293,0.0,0.0,67,0.00,,,0.00,WUHU216HW,2013-01-11 01:56:00,
2013-01-10 21:01:00,38.9,28.8,30.69,WNW,293,0.0,0.0,67,0.00,,,0.00,WUHU216HW,2013-01-11 02:01:00,
2013-01-10 21:06:00,38.9,28.8,30.69,WNW,293,0.0,0.0,67,0.00,,,0.00,WUHU216HW,2013-01-11 02:06:00,
2013-01-10 21:11:00,38.7,28.6,30.70,WNW,293,0.0,0.0,67,0.00,,,0.00,WUHU216HW,2013-01-11 02:11:00,
2013-01-10 21:16:00,38.5,28.4,30.70,WNW,293,0.0,0.0,67,0.00,,,0.00,WUHU216HW,2013-01-11 02:16:00,
2013-01-10 21:21:00,38.5,28.4,30.70,WNW,293,0.0,0.0,67,0.00,,,0.00,WUHU216HW,2013-01-11 02:21:00,
2013-01-10 21:26:00,38.5,28.4,30.70,WNW,293,0.0,0.0,67,0.00,,,0.00,WUHU216HW,2013-01-11 02:26:00,
2013-01-10 21:31:00,38.5,28.4,30.69,NNW,338,0.0,0.0,67,0.00,,,0.00,WUHU216HW,2013-01-11 02:31:00,
2013-01-10 21:36:00,38.5,28.8,30.69,NNW,338,0.0,0.0,68,0.00,,,0.00,WUHU216HW,2013-01-11 02:36:00,
2013-01-10 21:41:00,38.5,28.8,30.69,NW,315,0.0,0.0,68,0.00,,,0.00,WUHU216HW,2013-01-11 02:41:00,
2013-01-10 21:46:00,38.3,28.7,30.69,West,270,0.0,0.0,68,0.00,,,0.00,WUHU216HW,2013-01-11 02:46:00,
2013-01-10 21:51:00,38.3,28.7,30.69,West,270,0.0,0.0,68,0.00,,,0.00,WUHU216HW,2013-01-11 02:51:00,
2013-01-10 21:56:00,38.3,28.7,30.69,WSW,248,0.0,0.0,68,0.00,,,0.00,WUHU216HW,2013-01-11 02:56:00,
2013-01-10 22:01:00,38.3,29.1,30.69,WSW,248,0.0,0.0,69,0.00,,,0.00,WUHU216HW,2013-01-11 03:01:00,
2013-01-10 22:06:00,38.2,29.3,30.69,SW,225,0.0,0.0,70,0.00,,,0.00,WUHU216HW,2013-01-11 03:06:00,
2013-01-10 22:11:00,38.2,29.3,30.69,SSW,203,0.0,0.0,70,0.00,,,0.00,WUHU216HW,2013-01-11 03:11:00,
2013-01-10 22:16:00,38.2,29.3,30.68,SSW,203,0.0,0.0,70,0.00,,,0.00,WUHU216HW,2013-01-11 03:16:00,
2013-01-10 22:21:00,38.3,29.4,30.68,SSW,203,0.0,0.0,70,0.00,,,0.00,WUHU216HW,2013-01-11 03:21:00,
2013-01-10 22:26:00,38.3,29.4,30.67,SSW,203,0.0,0.0,70,0.00,,,0.00,WUHU216HW,2013-01-11 03:26:00,
2013-01-10 22:31:00,38.3,29.8,30.67,SSW,203,0.0,0.0,71,0.00,,,0.00,WUHU216HW,2013-01-11 03:31:00,
2013-01-10 22:36:00,38.3,29.8,30.67,West,270,0.0,0.0,71,0.00,,,0.00,WUHU216HW,2013-01-11 03:36:00,
2013-01-10 22:41:00,38.2,29.6,30.67,West,270,0.0,0.0,71,0.00,,,0.00,WUHU216HW,2013-01-11 03:41:00,
2013-01-10 22:46:00,38.2,29.6,30.68,West,270,0.0,0.0,71,0.00,,,0.00,WUHU216HW,2013-01-11 03:46:00,
2013-01-10 22:51:00,38.2,29.6,30.67,West,270,0.0,0.0,71,0.00,,,0.00,WUHU216HW,2013-01-11 03:51:00,
2013-01-10 22:56:00,38.2,29.6,30.68,West,270,0.0,0.0,71,0.00,,,0.00,WUHU216HW,2013-01-11 03:56:00,
2013-01-10 23:01:00,38.2,29.6,30.67,West,270,0.0,0.0,71,0.00,,,0.00,WUHU216HW,2013-01-11 04:01:00,
2013-01-10 23:06:00,38.2,29.6,30.67,West,270,0.0,0.0,71,0.00,,,0.00,WUHU216HW,2013-01-11 04:06:00,
2013-01-10 23:11:00,38.2,29.6,30.68,SSE,158,0.0,1.0,71,0.00,,,0.00,WUHU216HW,2013-01-11 04:11:00,
2013-01-10 23:16:00,38.0,29.8,30.68,NNW,338,0.0,1.0,72,0.00,,,0.00,WUHU216HW,2013-01-11 04:16:00,
2013-01-10 23:21:00,38.0,29.8,30.68,NE,45,0.0,1.0,72,0.00,,,0.00,WUHU216HW,2013-01-11 04:21:00,
2013-01-10 23:26:00,38.0,29.8,30.68,SSW,203,0.0,1.0,72,0.00,,,0.00,WUHU216HW,2013-01-11 04:26:00,
2013-01-10 23:31:00,37.8,30.0,30.67,NNW,338,0.0,0.0,73,0.00,,,0.00,WUHU216HW,2013-01-11 04:31:00,
2013-01-10 23:36:00,37.8,30.0,30.67,NNW,338,0.0,0.0,73,0.00,,,0.00,WUHU216HW,2013-01-11 04:36:00,
2013-01-10 23:41:00,37.8,29.6,30.67,NNW,338,0.0,0.0,72,0.00,,,0.00,WUHU216HW,2013-01-11 04:41:00,
2013-01-10 23:46:00,37.8,30.0,30.67,NNW,338,0.0,0.0,73,0.00,,,0.00,WUHU216HW,2013-01-11 04:46:00,
2013-01-10 23:51:00,37.8,30.0,30.67,NNW,338,0.0,0.0,73,0.00,,,0.00,WUHU216HW,2013-01-11 04:51:00,
2013-01-10 23:56:00,37.8,30.0,30.67,NNW,338,0.0,0.0,73,0.00,,,0.00,WUHU216HW,2013-01-11 04:56:00,